When you browse on this site, cookies collect data to enhance your experience and personalize the content and advertising you see.
Visit our Privacy Policy to learn more. By continuing to use the site, you agree to this use of cookies and data.
  • In Hungary
  • List of Countries
  • For 7 days
  • Water Temperature
  • Satellite Maps
  • Weather Map
  • News
  • Weather Widgets
  • user-avatar
    Login

    Hourly Weather London

    Today, 16 January, Wednesday

    Time Temperature Precipitation Wind Pressure Humidity
    00:00 +8°C° 0 mm 5 mps 758 mmHg 89%
    01:00 +8°C° 0 mm 5 mps 757 mmHg 88%
    02:00 +8°C° 0 mm 6 mps 757 mmHg 87%
    03:00 +8°C° 0 mm 6 mps 756 mmHg 86%
    04:00 +8°C° 0 mm 6 mps 755 mmHg 85%
    05:00 +8°C° 0 mm 6 mps 755 mmHg 84%
    06:00 +8°C° 0 mm 6 mps 754 mmHg 83%
    07:00 +8°C° 0 mm 6 mps 753 mmHg 83%
    08:00 +8°C° 0 mm 6 mps 753 mmHg 83%
    09:00 +8°C° 0 mm 6 mps 752 mmHg 83%
    10:00 +8°C° 0.2 mm 6 mps 752 mmHg 83%
    11:00 +8°C° 0.2 mm 7 mps 751 mmHg 83%
    12:00 +9°C° 0.2 mm 7 mps 750 mmHg 83%
    13:00 +8°C° 0.5 mm 7 mps 750 mmHg 81%
    14:00 +8°C° 0.5 mm 7 mps 749 mmHg 80%
    15:00 +8°C° 0.5 mm 7 mps 749 mmHg 78%
    16:00 +7°C° 0.2 mm 6 mps 749 mmHg 76%
    17:00 +6°C° 0.2 mm 5 mps 749 mmHg 74%
    18:00 +6°C° 0.2 mm 4 mps 750 mmHg 72%
    19:00 +5°C° 0 mm 4 mps 750 mmHg 73%
    20:00 +5°C° 0 mm 4 mps 750 mmHg 73%
    21:00 +4°C° 0 mm 4 mps 750 mmHg 74%
    22:00 +4°C° 0 mm 4 mps 750 mmHg 76%
    23:00 +4°C° 0 mm 4 mps 750 mmHg 78%

    Tomorrow, 17 January, Thursday

    Time Temperature Precipitation Wind Pressure Humidity
    00:00 +4°C° 0 mm 3 mps 750 mmHg 80%
    01:00 +4°C° 0.1 mm 4 mps 751 mmHg 80%
    02:00 +4°C° 0.1 mm 4 mps 751 mmHg 80%
    03:00 +4°C° 0.1 mm 4 mps 751 mmHg 81%
    04:00 +4°C° 0 mm 4 mps 752 mmHg 79%
    05:00 +2°C° 0 mm 5 mps 753 mmHg 78%
    06:00 +2°C° 0 mm 5 mps 753 mmHg 76%
    07:00 +2°C° 0 mm 5 mps 754 mmHg 77%
    08:00 +2°C° 0 mm 5 mps 755 mmHg 78%
    09:00 +1°C° 0 mm 5 mps 756 mmHg 79%
    10:00 +2°C° 0 mm 5 mps 757 mmHg 72%
    11:00 +2°C° 0 mm 5 mps 758 mmHg 65%
    12:00 +2°C° 0 mm 5 mps 759 mmHg 59%
    13:00 +2°C° 0 mm 5 mps 759 mmHg 57%
    14:00 +3°C° 0 mm 4 mps 760 mmHg 55%
    15:00 +1°C° 0 mm 4 mps 760 mmHg 53%
    16:00 +2°C° 0 mm 3 mps 761 mmHg 55%
    17:00 +1°C° 0 mm 3 mps 761 mmHg 57%
    18:00 +1°C° 0 mm 3 mps 762 mmHg 59%
    19:00 +2°C° 0 mm 2 mps 762 mmHg 60%
    20:00 +2°C° 0 mm 2 mps 762 mmHg 60%
    21:00 +2°C° 0 mm 1 mps 762 mmHg 60%
    22:00 +2°C° 0 mm 1 mps 762 mmHg 61%
    23:00 +2°C° 0 mm 1 mps 763 mmHg 61%

    Day after tomorrow, 18 January, Friday

    Time Temperature Precipitation Wind Pressure Humidity
    00:00 +2°C° 0 mm 1 mps 763 mmHg 62%
    01:00 +2°C° 0 mm 1 mps 762 mmHg 61%
    02:00 +2°C° 0 mm 1 mps 762 mmHg 60%
    03:00 +2°C° 0 mm 1 mps 762 mmHg 59%
    04:00 +2°C° 0 mm 1 mps 762 mmHg 58%
    05:00 +1°C° 0 mm 2 mps 761 mmHg 58%
    06:00 +1°C° 0 mm 2 mps 761 mmHg 57%
    07:00 0°C° 0 mm 3 mps 761 mmHg 60%
    08:00 +1°C° 0 mm 3 mps 760 mmHg 63%
    09:00 0°C° 0 mm 4 mps 760 mmHg 66%
    10:00 +1°C° 0 mm 4 mps 760 mmHg 65%
    11:00 +2°C° 0 mm 5 mps 759 mmHg 65%
    12:00 +3°C° 0 mm 6 mps 759 mmHg 64%
    13:00 +3°C° 0.1 mm 5 mps 758 mmHg 68%
    14:00 +3°C° 0.1 mm 5 mps 757 mmHg 72%
    15:00 +3°C° 0.1 mm 5 mps 757 mmHg 75%
    16:00 +3°C° 0.4 mm 5 mps 756 mmHg 78%
    17:00 +3°C° 0.4 mm 5 mps 756 mmHg 80%
    18:00 +3°C° 0.4 mm 5 mps 756 mmHg 82%
    19:00 +3°C° 0.2 mm 6 mps 756 mmHg 84%
    20:00 +3°C° 0.2 mm 6 mps 755 mmHg 85%
    21:00 +3°C° 0.2 mm 6 mps 755 mmHg 86%
    22:00 +3°C° 0.2 mm 6 mps 755 mmHg 87%
    23:00 +3°C° 0.2 mm 5 mps 755 mmHg 89%

    19 January, Saturday

    Time Temperature Precipitation Wind Pressure Humidity
    00:00 +3°C° 0.2 mm 5 mps 755 mmHg 90%
    01:00 +3°C° 0.1 mm 5 mps 754 mmHg 91%
    02:00 +4°C° 0.1 mm 4 mps 754 mmHg 92%
    03:00 +4°C° 0.1 mm 4 mps 754 mmHg 93%
    04:00 +4°C° 0 mm 4 mps 754 mmHg 92%
    05:00 +4°C° 0 mm 4 mps 754 mmHg 92%
    06:00 +4°C° 0 mm 4 mps 754 mmHg 92%
    07:00 +4°C° 0 mm 4 mps 754 mmHg 91%
    08:00 +4°C° 0 mm 4 mps 755 mmHg 89%
    09:00 +4°C° 0 mm 3 mps 755 mmHg 88%
    10:00 +4°C° 0 mm 3 mps 755 mmHg 86%
    11:00 +4°C° 0 mm 3 mps 755 mmHg 84%
    12:00 +4°C° 0 mm 4 mps 756 mmHg 82%
    13:00 +4°C° 0 mm 4 mps 756 mmHg 82%
    14:00 +4°C° 0 mm 4 mps 756 mmHg 81%
    15:00 +4°C° 0 mm 4 mps 756 mmHg 81%
    16:00 +4°C° 0 mm 3 mps 756 mmHg 83%
    17:00 +4°C° 0 mm 3 mps 757 mmHg 84%
    18:00 +4°C° 0 mm 3 mps 757 mmHg 86%
    19:00 +4°C° 0.1 mm 3 mps 758 mmHg 87%
    20:00 +4°C° 0.1 mm 3 mps 758 mmHg 87%
    21:00 +4°C° 0.1 mm 3 mps 759 mmHg 88%
    22:00 +4°C° 0.1 mm 3 mps 759 mmHg 87%
    23:00 +4°C° 0.1 mm 3 mps 760 mmHg 86%

    20 January, Sunday

    Time Temperature Precipitation Wind Pressure Humidity
    00:00 +4°C° 0.1 mm 4 mps 760 mmHg 85%
    01:00 +3°C° 0 mm 3 mps 761 mmHg 85%
    02:00 +3°C° 0 mm 3 mps 761 mmHg 84%
    03:00 +3°C° 0 mm 3 mps 761 mmHg 84%
    04:00 +3°C° 0 mm 3 mps 762 mmHg 83%
    05:00 +3°C° 0 mm 3 mps 762 mmHg 81%
    06:00 +3°C° 0 mm 3 mps 763 mmHg 80%
    07:00 +2°C° 0 mm 3 mps 763 mmHg 79%
    08:00 +2°C° 0 mm 3 mps 764 mmHg 78%
    09:00 +3°C° 0 mm 2 mps 765 mmHg 77%
    10:00 +3°C° 0 mm 3 mps 765 mmHg 72%
    11:00 +3°C° 0 mm 3 mps 766 mmHg 66%
    12:00 +4°C° 0 mm 3 mps 766 mmHg 61%
    13:00 +4°C° 0 mm 3 mps 766 mmHg 60%
    14:00 +4°C° 0 mm 3 mps 766 mmHg 59%
    15:00 +4°C° 0 mm 3 mps 766 mmHg 59%
    16:00 +3°C° 0 mm 3 mps 767 mmHg 61%
    17:00 +3°C° 0 mm 2 mps 767 mmHg 63%
    18:00 +3°C° 0 mm 2 mps 768 mmHg 65%
    19:00 +2°C° 0 mm 2 mps 768 mmHg 66%
    20:00 +2°C° 0 mm 2 mps 769 mmHg 66%
    21:00 +2°C° 0 mm 2 mps 769 mmHg 67%
    22:00 +1°C° 0 mm 2 mps 769 mmHg 67%
    23:00 +1°C° 0 mm 2 mps 769 mmHg 67%

    21 January, Monday

    Time Temperature Precipitation Wind Pressure Humidity
    00:00 +1°C° 0 mm 2 mps 770 mmHg 68%
    01:00 +2°C° 0 mm 1 mps 770 mmHg 68%
    02:00 +2°C° 0 mm 1 mps 770 mmHg 69%
    03:00 +2°C° 0 mm 1 mps 770 mmHg 69%
    04:00 +2°C° 0 mm 1 mps 770 mmHg 70%
    05:00 +1°C° 0 mm 1 mps 770 mmHg 70%
    06:00 +1°C° 0 mm 1 mps 770 mmHg 71%
    07:00 +1°C° 0 mm 1 mps 770 mmHg 70%
    08:00 +2°C° 0 mm 1 mps 770 mmHg 69%
    09:00 +2°C° 0 mm 1 mps 770 mmHg 69%
    10:00 +3°C° 0 mm 1 mps 769 mmHg 64%
    11:00 +4°C° 0 mm 1 mps 769 mmHg 59%
    12:00 +5°C° 0 mm 1 mps 769 mmHg 54%
    13:00 +5°C° 0 mm 1 mps 768 mmHg 54%
    14:00 +5°C° 0 mm 1 mps 767 mmHg 53%
    15:00 +5°C° 0 mm 1 mps 767 mmHg 53%
    16:00 +4°C° 0 mm 1 mps 766 mmHg 56%
    17:00 +3°C° 0 mm 1 mps 766 mmHg 59%
    18:00 +2°C° 0 mm 1 mps 765 mmHg 62%
    19:00 +2°C° 0 mm 1 mps 765 mmHg 63%
    20:00 +1°C° 0 mm 2 mps 764 mmHg 65%
    21:00 +1°C° 0 mm 2 mps 764 mmHg 66%
    22:00 +1°C° 0 mm 2 mps 763 mmHg 67%
    23:00 +1°C° 0 mm 2 mps 762 mmHg 69%
    Show more